| time (UTC) | temp F | wind direction | speed knots | gust knots | rain 1hr in | rain 24hr in | rain mn in | humidity % | barometer mb |
| 20260831120018 | 66 | 135 | 1.7 | 5.2 | 0.00 | 0.00 | 0.00 | 95 | 1011.9 |
| 20260831113017 | 67 | 90 | 1.7 | 4.3 | 0.00 | 0.00 | 0.00 | 95 | 1012.2 |
| 20260831110017 | 67 | 338 | 0.9 | 4.3 | 0.00 | 0.00 | 0.00 | 95 | 1012.3 |
| 20260831103018 | 67 | 248 | 0.9 | 3.5 | 0.00 | 0.00 | 0.00 | 95 | 1012.4 |
| 20260831100017 | 67 | 293 | 0.9 | 4.3 | 0.00 | 0.00 | 0.00 | 94 | 1012.4 |
| 20260831093019 | 67 | 270 | 1.7 | 3.5 | 0.00 | 0.00 | 0.00 | 94 | 1012.3 |
| 20260831090019 | 66 | 0.0 | 0.0 | 0.00 | 0.00 | 0.00 | 93 | 1012.4 | |
| 20260831083040 | 67 | 0.0 | 0.0 | 0.00 | 0.00 | 0.00 | 93 | 1012.6 | |
| 20260831080020 | 67 | 0.0 | 0.0 | 0.00 | 0.00 | 0.00 | 92 | 1012.6 | |
| 20260831073019 | 67 | 0.0 | 0.0 | 0.00 | 0.00 | 0.00 | 92 | 1012.7 | |
| 20260831070019 | 67 | 0.0 | 0.0 | 0.00 | 0.00 | 0.00 | 92 | 1012.7 | |
| 20260831063019 | 68 | 0.0 | 0.0 | 0.00 | 0.00 | 0.00 | 91 | 1012.8 | |
| 20260831060019 | 68 | 0.0 | 1.7 | 0.00 | 0.00 | 0.00 | 91 | 1012.4 | |
| 20260831053019 | 68 | 270 | 2.6 | 3.5 | 0.00 | 0.00 | 0.00 | 90 | 1012.2 |
| 20260831050019 | 69 | 270 | 2.6 | 6.1 | 0.00 | 0.00 | 0.00 | 89 | 1011.9 |
| 20260831043039 | 69 | 270 | 4.3 | 7.0 | 0.00 | 0.00 | 0.00 | 87 | 1011.6 |
| 20260831040039 | 70 | 270 | 3.5 | 7.0 | 0.00 | 0.00 | 0.00 | 85 | 1011.4 |
| 20260831033019 | 71 | 270 | 3.5 | 6.1 | 0.00 | 0.00 | 0.00 | 83 | 1011.1 |
| 20260831030039 | 72 | 270 | 4.3 | 7.0 | 0.00 | 0.00 | 0.00 | 81 | 1010.6 |
| 20260831023038 | 74 | 270 | 3.5 | 7.0 | 0.00 | 0.00 | 0.00 | 76 | 1010.6 |
| 20260831020018 | 76 | 270 | 5.2 | 8.7 | 0.00 | 0.00 | 0.00 | 72 | 1010.8 |
| 20260831013039 | 79 | 248 | 6.1 | 9.6 | 0.00 | 0.00 | 0.00 | 67 | 1010.6 |
| 20260831010019 | 80 | 248 | 7.0 | 12.2 | 0.00 | 0.00 | 0.00 | 62 | 1010.8 |
| 20260831003018 | 81 | 248 | 8.7 | 13.9 | 0.00 | 0.00 | 0.00 | 62 | 1010.8 |
| 20260831000018 | 81 | 248 | 9.6 | 18.2 | 0.00 | 0.00 | 0.00 | 62 | 1010.7 |
| 20260830233018 | 83 | 248 | 9.6 | 15.6 | 0.00 | 0.00 | 0.00 | 58 | 1010.7 |
| 20260830230018 | 84 | 248 | 10.4 | 15.6 | 0.00 | 0.00 | 0.00 | 57 | 1010.8 |
| 20260830223018 | 85 | 248 | 9.6 | 15.6 | 0.00 | 0.00 | 0.00 | 53 | 1011.0 |
| 20260830220018 | 85 | 248 | 9.6 | 17.4 | 0.00 | 0.00 | 0.00 | 52 | 1011.3 |
| 20260830213038 | 87 | 248 | 8.7 | 14.8 | 0.00 | 0.00 | 0.00 | 51 | 1011.6 |
| 20260830210018 | 86 | 248 | 9.6 | 16.5 | 0.00 | 0.00 | 0.00 | 51 | 1011.7 |
| 20260830203018 | 86 | 248 | 10.4 | 17.4 | 0.00 | 0.00 | 0.00 | 54 | 1011.9 |
| 20260830200017 | 85 | 248 | 10.4 | 17.4 | 0.00 | 0.00 | 0.00 | 58 | 1012.1 |
| 20260830193017 | 86 | 248 | 9.6 | 14.8 | 0.00 | 0.00 | 0.00 | 60 | 1012.3 |
| 20260830190017 | 86 | 270 | 8.7 | 13.9 | 0.00 | 0.00 | 0.00 | 58 | 1012.4 |
| 20260830183019 | 85 | 270 | 8.7 | 13.0 | 0.00 | 0.00 | 0.00 | 60 | 1012.2 |
| 20260830180020 | 84 | 270 | 7.8 | 13.0 | 0.00 | 0.00 | 0.00 | 64 | 1012.5 |
| 20260830173038 | 83 | 270 | 5.2 | 9.6 | 0.00 | 0.00 | 0.00 | 68 | 1012.3 |
| 20260830170018 | 79 | 293 | 2.6 | 7.8 | 0.00 | 0.00 | 0.00 | 77 | 1012.2 |
| 20260830163018 | 73 | 293 | 2.6 | 7.0 | 0.00 | 0.00 | 0.00 | 94 | 1011.8 |
| 20260830160039 | 70 | 270 | 1.7 | 5.2 | 0.00 | 0.00 | 0.00 | 97 | 1011.8 |
| 20260830153018 | 69 | 270 | 1.7 | 5.2 | 0.00 | 0.00 | 0.00 | 96 | 1011.7 |
| 20260830150018 | 68 | 270 | 2.6 | 6.1 | 0.00 | 0.00 | 0.00 | 96 | 1011.9 |
| 20260830143018 | 68 | 203 | 1.7 | 6.1 | 0.00 | 0.00 | 0.00 | 96 | 1011.8 |
| 20260830140018 | 68 | 0.0 | 2.6 | 0.00 | 0.00 | 0.00 | 96 | 1011.7 | |
| 20260830133018 | 68 | 203 | 0.9 | 2.6 | 0.00 | 0.00 | 0.00 | 96 | 1011.5 |
| 20260830130018 | 68 | 248 | 0.9 | 2.6 | 0.00 | 0.00 | 0.00 | 96 | 1011.5 |
| 20260830123018 | 69 | 270 | 2.6 | 7.0 | 0.00 | 0.00 | 0.00 | 96 | 1011.5 |